Voltar ao catálogo

SL-8 R/B

AtivoPO
NORAD 10138·ROCKET BODY·🇷🇺 Russia

Lançado Jul 8, 1977 de Plesetsk Cosmodrome

Loading…

Próximas Passagens (próximas 24 horas)

TLE

AtualizadoSource: Space-Track

Época: Sep 14, 2026, 07:08 UTC

1 10138U 77062B   26257.29766441  .00000151  00000-0  14453-3 0  9993
2 10138  82.9351 267.6538 0020404 352.3833  26.7228 13.74244067462802

Acompanhe SL-8 R/B em tempo real com AllMySat

Download on the App Store